{"data":{"norad_id":58385,"intl_designator":"2023-178M","name":"STARLINK-30930","alt_names":[],"object_type":"PAYLOAD","status":"ACTIVE","operator":null,"country":"US","launch_date":"2023-11-20","launch_site_code":"AFWTR","launch_vehicle":null,"mission":null,"orbit_class":"UNKNOWN","rcs_meters":null,"size_class":null,"mass_kg":null,"dimensions":null,"purposes":["comms"],"wikipedia_slug":null,"has_3d_model":false,"image_url":null,"decayed_at":null,"tle_current":{"epoch":"2026-09-20T00:58:55.935552Z","epoch_age_seconds":183341,"freshness":"STALE","line1":"1 58385U 23178M   26263.04092518  .00000329  00000+0  20877-4 0  9999","line2":"2 58385  53.1598 173.6431 0001085  87.7263 272.3864 15.34390200159581","mean_motion":15.343902,"eccentricity":0.0001085,"inclination_deg":53.1598,"raan_deg":173.6431,"arg_perigee_deg":87.7263,"mean_anomaly_deg":272.3864,"bstar":2.0877e-5,"rev_number":15958,"period_min":93.848357477778,"perigee_km":461.99013370096,"apogee_km":463.47460235382,"semimajor_km":6840.8693680274,"source":"CELESTRAK","updated_at":"2026-09-21T09:00:33.867103Z"}}}